OneWeb SL0243

operational
NORAD ID: 48774 Int'l Des: 2021-045 Owner: ONEWEBN Country: UK Constellation: oneweb
LEOCIRCULARPOLARONEWEB_TYPE

关于 OneWeb SL0243

正在加载描述...

实时位置

正在加载3D地球...

即将过境

高度历史

Altitude vs Time

uPlot chart will show altitude changes over time

两行轨道根数

1 48774U 21045H 25351.59213410 .00000063 00000-0 13217-3 0 9999
2 48774 87.9001 295.4599 0002217 72.7994 287.3379 13.15549430220480
Epoch: Dec 17, 2025 • Age: 7 hours

当前状态

高度 1217.7 km
速度 7.24 km/s
星下点 -40.01°S, 112.76°W
发射日期 May 28, 2021
运行时间 4.5 years
类型 internet

技术详情

分类 Payload
质量 148.00 kg
干质量 140.00 kg
总质量 148.00 kg
长度 1.30 m
直径 1.00 m
跨度 5.00 m
形状 Trapezoid+2 pan
制造商 ONEWUS
平台类型 ARROW
阶段状态 In Orbit
所有者/国家 ONEWEBN/UK

大型星座

Loading constellations...